Pine River, MN

6:26 PM CDT on July 23, 2017 (GMT -0500)
Pine River Regional

Weather History for KPWC - August, 2014

Change the Weather History Date:

Thursday, August 28, 2014

  Actual Average Record
Temperature  
Mean Temperature 61 °F -  
Max Temperature 71 °F 74 °F 84 °F (1998)
Min Temperature 51 °F 51 °F 44 °F (2004)
Degree Days  
Heating Degree Days 4    
Growing Degree Days 11 (Base 50)    
Moisture  
Dew Point 60 °F    
Average Humidity 90    
Maximum Humidity 100    
Minimum Humidity 69    
Precipitation  
Precipitation 0.00 in - - ()
Sea Level Pressure  
Sea Level Pressure 30.06 in    
Wind  
Wind Speed 3 mph (SE)    
Max Wind Speed 10 mph    
Max Gust Speed -    
Visibility 10 miles    
Events Rain    
Averages and records for this station are not official NWS values.
T = Trace of Precipitation, MM = Missing Value Source: NWS Daily Summary

Daily Weather History Graph

Daily Weather History Graph

Search for Another Location

Airport or City:

Trip Planner

Search our weather history database for the weather conditions in past years. The results will help you decide how hot, cold, wet, or windy it might be!

Date:

Astronomy

Aug. 28, 2014 Rise Set
Actual Time 6:32 AM CDT 8:04 PM CDT
Civil Twilight 6:00 AM CDT 8:35 PM CDT
Nautical Twilight 5:21 AM CDT 9:14 PM CDT
Astronomical Twilight 4:40 AM CDT 9:55 PM CDT
Moon 9:38 AM CDT (8/28) 9:14 PM CDT (8/28)
Length of Visible Light 14h 35m
Length of Day
13h 32m
Waxing Crescent, 9% of the Moon is Illuminated
Aug 28
Waxing Crescent
Sep 2
First Quarter
Sep 8
Full
Sep 15
Last Quarter
Sep 24
New

Hourly Weather History & Observations

Time (CDT) Temp. Dew Point Humidity Pressure Visibility Wind Dir Wind Speed Gust Speed Precip Events Conditions
12:13 AM 51.8 °F 51.8 °F 100% 30.17 in 10.0 mi Calm Calm - N/A   Clear
12:34 AM 51.8 °F 51.8 °F 100% 30.16 in 10.0 mi Calm Calm - N/A   Scattered Clouds
12:53 AM 51.8 °F 51.8 °F 100% 30.16 in 10.0 mi Calm Calm - N/A   Scattered Clouds
1:14 AM 53.6 °F 53.6 °F 100% 30.15 in 10.0 mi Calm Calm - N/A   Clear
1:34 AM 51.8 °F 51.8 °F 100% 30.15 in 10.0 mi Calm Calm - N/A   Scattered Clouds
1:54 AM 53.6 °F 53.6 °F 100% 30.14 in 7.0 mi Calm Calm - N/A   Scattered Clouds
2:14 AM 53.6 °F 53.6 °F 100% 30.13 in 7.0 mi Calm Calm - N/A   Scattered Clouds
2:33 AM 53.6 °F 53.6 °F 100% 30.14 in 5.0 mi Calm Calm - N/A   Mostly Cloudy
2:53 AM 53.6 °F 53.6 °F 100% 30.13 in 7.0 mi Calm Calm - N/A   Overcast
3:13 AM 55.4 °F 55.4 °F 100% 30.13 in 10.0 mi Calm Calm - N/A   Overcast
3:33 AM 55.4 °F 55.4 °F 100% 30.13 in 10.0 mi Calm Calm - N/A   Mostly Cloudy
3:54 AM 55.4 °F 55.4 °F 100% 30.12 in 10.0 mi Calm Calm - N/A   Overcast
4:13 AM 57.2 °F 57.2 °F 100% 30.12 in 10.0 mi Calm Calm - N/A   Overcast
4:34 AM 57.2 °F 57.2 °F 100% 30.12 in 10.0 mi Calm Calm - N/A   Overcast
4:54 AM 57.2 °F 57.2 °F 100% 30.11 in 10.0 mi ESE 3.5 mph - N/A   Overcast
5:14 AM 59.0 °F 59.0 °F 100% 30.11 in 10.0 mi Calm Calm - N/A   Overcast
5:33 AM 57.2 °F 57.2 °F 100% 30.11 in 10.0 mi Calm Calm - N/A   Overcast
5:54 AM 57.2 °F 57.2 °F 100% 30.10 in 10.0 mi ESE 3.5 mph - N/A   Mostly Cloudy
6:14 AM 57.2 °F 57.2 °F 100% 30.10 in 10.0 mi Calm Calm - N/A   Scattered Clouds
6:33 AM 57.2 °F 57.2 °F 100% 30.11 in 10.0 mi SSE 3.5 mph - N/A   Clear
6:54 AM 55.4 °F 55.4 °F 100% 30.11 in 10.0 mi Calm Calm - N/A   Clear
7:14 AM 55.4 °F 55.4 °F 100% 30.10 in 10.0 mi Calm Calm - N/A   Clear
7:34 AM 59.0 °F 59.0 °F 100% 30.11 in 10.0 mi Calm Calm - N/A   Scattered Clouds
7:53 AM 60.8 °F 60.8 °F 100% 30.10 in 10.0 mi ESE 4.6 mph - N/A   Clear
8:14 AM 62.6 °F 59.0 °F 88% 30.10 in 10.0 mi ESE 6.9 mph - N/A   Clear
8:34 AM 62.6 °F 57.2 °F 82% 30.10 in 10.0 mi SE 6.9 mph - N/A   Clear
8:53 AM 62.6 °F 57.2 °F 82% 30.10 in 10.0 mi SE 8.1 mph - N/A   Mostly Cloudy
9:14 AM 62.6 °F 57.2 °F 82% 30.10 in 10.0 mi SE 6.9 mph - N/A   Overcast
9:34 AM 62.6 °F 57.2 °F 82% 30.10 in 10.0 mi SE 5.8 mph - N/A   Mostly Cloudy
9:54 AM 64.4 °F 59.0 °F 83% 30.10 in 10.0 mi SSE 6.9 mph - N/A   Mostly Cloudy
10:13 AM 64.4 °F 59.0 °F 83% 30.10 in 10.0 mi SE 5.8 mph - N/A   Overcast
10:34 AM 64.4 °F 59.0 °F 83% 30.09 in 10.0 mi ESE 6.9 mph - N/A   Overcast
10:54 AM 66.2 °F 59.0 °F 78% 30.08 in 10.0 mi SE 8.1 mph - N/A   Mostly Cloudy
11:14 AM 66.2 °F 60.8 °F 83% 30.09 in 10.0 mi SE 8.1 mph - N/A   Mostly Cloudy
11:34 AM 69.8 °F 60.8 °F 73% 30.08 in 10.0 mi SE 8.1 mph - N/A   Overcast
11:54 AM 69.8 °F 60.8 °F 73% 30.08 in 10.0 mi SSE 8.1 mph - N/A   Mostly Cloudy
12:14 PM 69.8 °F 60.8 °F 73% 30.07 in 10.0 mi SE 9.2 mph - N/A   Mostly Cloudy
12:34 PM 69.8 °F 60.8 °F 73% 30.07 in 10.0 mi SSE 9.2 mph - N/A   Mostly Cloudy
12:53 PM 69.8 °F 60.8 °F 73% 30.06 in 10.0 mi SSE 8.1 mph - N/A   Mostly Cloudy
1:14 PM 69.8 °F 60.8 °F 73% 30.05 in 10.0 mi SE 10.4 mph - N/A   Mostly Cloudy
1:34 PM 69.8 °F 60.8 °F 73% 30.04 in 10.0 mi SSE 9.2 mph - N/A   Mostly Cloudy
1:53 PM 71.6 °F 60.8 °F 69% 30.04 in 10.0 mi SE 9.2 mph - N/A   Scattered Clouds
2:14 PM 71.6 °F 60.8 °F 69% 30.03 in 10.0 mi SSE 9.2 mph - N/A   Scattered Clouds
2:33 PM 71.6 °F 60.8 °F 69% 30.03 in 10.0 mi SSE 10.4 mph - N/A   Mostly Cloudy
2:54 PM 71.6 °F 60.8 °F 69% 30.03 in 10.0 mi SSE 9.2 mph - N/A   Scattered Clouds
3:14 PM 69.8 °F 60.8 °F 73% 30.02 in 10.0 mi SE 10.4 mph - N/A   Scattered Clouds
3:34 PM 69.8 °F 60.8 °F 73% 30.02 in 10.0 mi SSE 9.2 mph - N/A   Mostly Cloudy
3:53 PM 69.8 °F 60.8 °F 73% 30.01 in 10.0 mi SSE 6.9 mph - N/A   Scattered Clouds
4:14 PM 69.8 °F 62.6 °F 78% 30.01 in 10.0 mi SE 5.8 mph - N/A   Mostly Cloudy
4:34 PM 69.8 °F 62.6 °F 78% 30.01 in 10.0 mi ESE 6.9 mph - N/A   Mostly Cloudy
4:53 PM 69.8 °F 62.6 °F 78% 30.01 in 10.0 mi SE 6.9 mph - N/A   Scattered Clouds
5:14 PM 68.0 °F 60.8 °F 78% 30.00 in 10.0 mi ESE 6.9 mph - N/A   Clear
5:33 PM 68.0 °F 62.6 °F 83% 30.00 in 10.0 mi ESE 6.9 mph - N/A   Clear
5:53 PM 68.0 °F 62.6 °F 83% 29.99 in 10.0 mi East 4.6 mph - N/A Rain Light Rain
6:14 PM 66.2 °F 62.6 °F 88% 29.99 in 10.0 mi ESE 4.6 mph - N/A Rain Light Rain
6:34 PM 66.2 °F 62.6 °F 88% 29.99 in 10.0 mi SE 3.5 mph - N/A Rain Light Rain
6:53 PM 66.2 °F 62.6 °F 88% 29.99 in 10.0 mi ESE 4.6 mph - N/A Rain Light Rain
7:14 PM 64.4 °F 62.6 °F 94% 29.99 in 10.0 mi ESE 3.5 mph - N/A Rain Light Rain
7:33 PM 64.4 °F 62.6 °F 94% 29.98 in 10.0 mi ESE 4.6 mph - N/A   Light Drizzle
7:53 PM 64.4 °F 62.6 °F 94% 29.98 in 10.0 mi ESE 3.5 mph - N/A   Drizzle
8:13 PM 64.4 °F 64.4 °F 100% 29.98 in 10.0 mi ESE 3.5 mph - N/A   Drizzle
8:34 PM 64.4 °F 64.4 °F 100% 29.97 in 10.0 mi ESE 4.6 mph - N/A   Light Drizzle
8:54 PM 64.4 °F 64.4 °F 100% 29.98 in 10.0 mi SE 5.8 mph - N/A   Light Drizzle
9:14 PM 64.4 °F 64.4 °F 100% 29.98 in 10.0 mi SE 5.8 mph - N/A Rain Light Rain
9:33 PM 64.4 °F 64.4 °F 100% 29.98 in 10.0 mi SE 6.9 mph - N/A   Scattered Clouds
9:53 PM 64.4 °F 64.4 °F 100% 29.97 in 10.0 mi SE 6.9 mph - N/A   Mostly Cloudy
10:14 PM 64.4 °F 64.4 °F 100% 29.96 in 10.0 mi SE 5.8 mph - N/A   Overcast
10:33 PM 64.4 °F 64.4 °F 100% 29.96 in 10.0 mi SE 4.6 mph - N/A   Overcast
10:54 PM 64.4 °F 64.4 °F 100% 29.95 in 10.0 mi SE 5.8 mph - N/A   Overcast
11:14 PM 64.4 °F 64.4 °F 100% 29.95 in 10.0 mi SE 5.8 mph - N/A   Overcast
11:34 PM 64.4 °F 64.4 °F 100% 29.95 in 10.0 mi SE 4.6 mph - N/A   Overcast
11:53 PM 64.4 °F 64.4 °F 100% 29.95 in 10.0 mi SE 5.8 mph - N/A   Overcast